Theta_e
307 307 306 307 307 307 307 307 307 307 307 310 313 315 319 318 316 314 313 313 314 316 316 315 315 314 313 312 312 311 312 311 311 311 310 310 310 310 310 310 310 310 310 309 310 310 309 310 309 310 310 310 311 310 310 309 308 310 311 312 315 316 317 318 318 317 318 319 321 321 322 323 322 321 323 323 320 320 319 319 318 314 313 314 314 312 317
307 307 307 307 307 307 307 307 307 307 307 309 311 316 316 316 316 314 313 314 315 316 316 315 314 313 312 312 311 310 311 311 311 311 311 310 311 310 310 310 310 309 309 309 309 309 310 310 310 310 310 310 310 310 309 309 308 309 312 313 313 315 317 318 318 317 317 317 317 319 320 321 320 321 324 324 324 324 323 323 322 317 313 314 315 312 316
307 307 307 308 307 307 307 307 307 308 308 308 312 316 316 316 317 315 314 314 315 314 315 315 314 313 313 313 311 311 311 310 310 311 311 310 309 310 310 310 309 309 309 309 310 310 310 310 310 310 310 310 309 309 309 309 308 309 312 312 310 312 316 318 319 319 317 315 315 316 318 320 320 321 322 324 325 323 320 318 317 317 318 318 315 313 318
307 307 308 308 307 307 308 307 308 308 308 309 312 316 318 317 317 316 315 314 314 314 313 313 313 313 313 313 312 311 311 310 309 309 310 310 309 309 309 309 309 310 310 310 311 311 310 311 311 311 311 311 310 310 310 310 309 310 312 311 309 310 313 316 319 321 319 318 320 321 320 319 319 319 321 323 324 324 323 317 314 317 320 318 319 320 320
307 307 308 308 307 307 308 308 308 309 309 309 311 316 317 315 315 315 316 316 314 314 313 313 313 313 313 312 312 311 310 311 310 309 310 310 309 309 310 310 310 311 311 312 312 311 312 311 312 312 311 311 311 311 310 310 310 311 311 310 309 310 311 313 315 318 317 318 320 320 320 318 317 318 319 321 323 324 322 318 318 323 319 316 324 328 322
307 308 308 308 307 308 308 308 309 310 311 311 313 317 315 315 314 313 314 315 314 313 313 312 312 312 312 311 311 311 310 310 311 310 310 309 309 310 311 311 311 311 312 312 312 313 313 312 312 312 312 311 311 311 311 311 310 310 310 309 310 310 310 311 312 313 313 314 315 316 318 318 317 318 319 319 320 322 320 320 323 325 320 318 326 330 325
308 308 308 308 308 308 309 309 309 310 311 313 316 317 314 314 313 312 313 314 313 312 312 312 312 312 312 311 311 311 310 310 310 309 309 310 310 310 311 311 311 312 312 313 314 314 313 313 313 313 313 313 312 312 312 311 310 310 309 309 310 310 310 310 310 311 312 312 313 314 315 315 317 317 318 319 320 321 321 323 325 325 323 325 330 331 331
308 308 308 308 308 309 309 309 309 310 312 314 314 314 313 313 313 314 314 313 313 312 312 312 312 311 312 312 311 310 311 310 310 309 309 311 311 311 311 311 311 312 312 313 314 314 313 313 314 313 313 313 313 313 312 312 311 311 310 310 310 310 310 311 310 311 312 311 312 313 313 314 316 316 318 319 320 321 322 323 325 325 325 327 329 328 330
308 308 308 308 309 309 309 309 309 311 313 315 313 313 313 313 313 314 315 314 313 313 312 312 313 312 311 311 311 310 311 310 309 310 309 309 311 311 310 311 311 312 312 313 313 313 312 312 312 312 312 312 312 312 312 311 311 311 311 310 310 310 310 310 310 311 311 310 311 312 312 313 315 315 318 318 318 319 320 321 324 324 323 325 325 323 328
307 308 308 309 309 310 309 309 309 310 313 314 313 313 313 313 313 313 314 314 313 313 313 312 313 312 310 311 311 310 310 309 310 311 311 309 310 310 310 311 312 312 313 313 313 312 311 310 310 310 310 310 310 310 310 310 310 311 311 311 311 311 310 310 310 311 310 310 310 311 311 312 313 315 318 319 319 320 320 321 324 325 325 324 322 323 329
308 308 309 309 310 310 309 309 308 310 312 314 313 313 313 313 314 314 315 315 313 313 313 312 312 312 311 311 311 310 311 310 310 312 311 310 310 309 310 311 312 312 313 313 312 310 309 309 310 310 310 309 309 310 309 310 310 310 311 311 311 311 311 310 310 310 311 311 311 312 313 313 314 316 318 319 320 320 320 321 322 325 325 324 325 328 332
308 308 309 309 310 310 309 309 308 309 312 313 314 314 312 313 314 314 315 315 313 313 313 312 311 312 311 310 311 311 311 310 310 311 311 310 310 309 309 311 313 313 312 311 311 310 310 310 311 310 310 311 311 310 310 310 311 311 311 311 312 312 312 311 310 310 311 311 312 314 315 314 315 316 318 318 319 320 321 322 322 324 324 325 328 330 332
308 308 309 309 310 310 309 308 308 309 310 312 314 314 312 313 314 313 314 316 314 313 314 312 311 311 311 311 311 311 311 310 310 311 310 311 310 309 309 311 312 312 311 310 309 310 312 312 313 313 312 312 312 312 311 311 312 312 311 312 312 312 313 312 311 310 310 311 312 313 314 314 315 316 317 318 320 322 322 321 322 325 329 332 333 332 333
308 308 309 309 309 309 309 309 308 308 309 311 314 314 313 313 314 313 314 316 314 313 313 313 312 312 312 312 311 311 311 311 311 311 311 311 310 310 310 309 311 312 311 310 311 312 313 313 313 313 312 313 313 313 313 312 312 312 313 312 313 314 314 314 313 312 310 310 311 312 313 313 314 315 317 318 321 326 327 328 329 329 331 333 335 336 336
308 308 309 309 309 309 309 309 309 309 309 310 313 314 313 313 314 313 314 315 315 314 313 313 313 312 312 312 312 312 312 312 312 312 312 311 311 310 310 310 311 312 311 311 312 313 313 313 313 313 312 313 313 313 313 313 312 312 313 312 313 313 313 314 314 312 310 310 311 312 313 314 315 319 323 323 327 330 332 333 336 334 330 332 334 335 335
308 308 309 309 309 309 309 309 309 309 308 310 313 314 314 313 313 313 313 314 315 315 313 313 312 312 313 312 312 312 313 312 313 313 312 312 311 311 311 312 312 312 311 312 313 313 314 314 313 312 312 312 313 312 313 313 313 312 312 312 313 314 314 315 315 313 311 309 310 312 313 315 322 328 326 323 326 328 329 335 338 335 330 331 331 331 332
308 308 309 308 309 309 309 309 309 309 308 310 313 314 314 313 313 314 314 313 314 315 312 311 312 312 313 313 312 313 313 312 313 313 313 312 312 312 312 313 312 312 311 312 313 313 314 313 312 311 311 312 313 313 313 313 313 313 312 312 313 314 315 315 314 313 312 311 311 311 311 317 326 328 324 322 324 326 331 338 338 333 328 328 329 329 329
308 308 308 309 309 309 309 309 309 309 308 309 312 314 314 313 313 313 314 313 314 314 313 312 312 313 313 313 312 312 313 312 313 313 313 313 313 313 313 313 312 313 312 312 313 314 313 312 311 311 311 313 314 314 314 313 313 313 312 313 314 313 315 315 313 312 312 312 311 310 312 320 325 325 323 323 324 328 333 335 333 329 327 327 326 326 326
308 308 308 309 309 309 309 309 309 309 308 308 311 314 314 313 313 313 314 314 314 314 314 313 313 313 313 312 312 313 313 313 313 313 314 314 314 313 312 312 313 313 313 314 314 314 314 313 312 312 312 313 313 314 313 313 313 312 313 314 314 314 315 315 313 312 311 312 312 310 313 321 322 322 322 323 326 331 331 327 325 326 325 324 323 323 324
309 308 308 308 308 308 309 309 309 309 308 308 311 314 314 313 313 313 314 314 314 314 314 314 313 314 313 313 313 313 313 313 313 314 314 315 314 313 313 314 314 313 313 315 315 315 314 314 313 313 313 313 313 314 314 313 313 312 313 314 315 315 315 315 313 313 313 313 312 311 314 319 321 322 323 323 325 327 324 321 323 324 322 322 321 321 322
309 309 309 308 308 308 308 309 308 308 308 308 310 314 314 313 312 313 313 314 314 315 315 314 314 314 314 313 313 313 313 313 313 313 313 314 314 314 314 314 313 313 314 314 314 314 314 314 314 314 314 313 313 314 314 313 314 313 313 314 315 316 316 315 315 314 314 313 313 314 316 318 319 321 323 322 321 321 320 321 323 322 320 321 320 319 321
310 310 309 308 309 308 308 309 309 308 308 308 309 313 315 314 313 313 313 313 314 315 315 315 314 314 314 314 314 313 313 313 313 313 313 314 314 314 313 314 313 313 313 313 313 313 313 313 313 312 313 314 314 314 314 314 314 313 313 314 314 315 315 315 315 316 315 315 316 317 318 318 317 318 320 320 319 318 318 319 319 318 318 319 319 319 320
311 311 310 309 309 309 308 309 309 308 308 308 310 313 315 314 313 313 313 314 314 315 316 316 316 316 315 315 314 313 313 313 313 313 313 314 314 314 314 314 313 312 312 312 312 312 312 312 312 311 313 313 313 312 313 314 313 312 313 313 312 312 313 314 315 316 316 315 316 316 316 317 317 317 318 318 318 318 318 318 318 318 318 318 318 318 319
312 312 311 310 309 309 309 309 309 309 308 308 310 313 314 313 313 313 313 314 315 316 318 318 316 315 315 315 314 314 314 314 314 314 313 314 314 315 315 314 312 312 313 313 311 311 311 311 311 311 313 313 312 312 312 313 313 313 312 312 312 312 312 313 315 316 316 316 317 317 317 316 317 316 317 318 317 317 318 318 318 318 318 317 317 317 318
312 312 312 311 310 310 310 309 309 309 308 308 310 312 313 313 313 312 313 315 316 316 318 319 318 315 314 315 314 314 315 314 314 314 314 314 314 315 315 315 314 314 314 314 312 312 312 312 311 311 313 313 312 313 314 313 313 312 312 311 311 311 311 312 314 315 315 315 317 316 315 315 316 317 318 319 318 317 317 317 316 317 318 317 317 317 318
311 313 313 312 311 310 310 310 310 310 309 308 309 312 314 314 313 313 313 315 315 316 318 319 319 316 315 316 315 315 315 315 314 315 315 314 314 314 315 316 315 314 314 314 313 313 313 312 312 312 313 313 312 313 313 313 312 312 311 310 309 309 310 312 313 314 315 316 316 314 314 316 317 316 317 318 317 316 316 315 316 317 317 317 317 317 317
311 312 314 313 312 311 311 311 311 311 310 308 309 312 314 314 313 313 314 315 316 318 319 319 320 318 316 316 316 315 315 315 315 315 315 314 314 314 315 315 315 314 314 314 313 313 313 313 312 313 313 312 313 312 312 313 313 312 310 309 309 309 310 310 311 313 315 315 314 312 314 316 315 313 314 315 315 316 316 316 316 317 317 318 318 318 318
311 312 314 315 313 311 311 311 311 311 311 309 309 312 314 314 314 314 314 314 316 317 318 318 318 318 317 316 316 316 316 315 315 315 315 314 314 314 315 316 315 314 314 314 314 314 314 313 313 313 312 312 313 313 312 313 314 312 310 310 310 309 308 309 310 311 312 312 311 311 312 313 312 312 313 314 314 315 316 316 317 318 318 318 318 319 319
311 311 314 316 314 312 312 311 311 311 311 310 311 313 315 315 315 315 314 314 314 315 316 317 318 319 319 317 316 317 317 316 315 315 315 315 315 315 315 316 315 314 314 315 315 315 315 313 313 313 313 313 314 313 313 313 313 312 311 311 311 309 309 309 309 309 310 310 310 311 311 312 312 312 312 313 315 317 317 317 317 318 318 318 318 319 320
311 311 313 316 316 314 312 311 311 311 311 311 313 316 318 318 316 315 315 314 314 314 315 317 319 320 319 317 316 317 317 317 316 316 316 316 316 316 315 315 315 315 315 315 315 315 315 314 313 313 313 313 314 313 312 312 313 312 312 312 311 310 310 310 310 309 309 310 310 311 312 312 312 312 312 314 315 316 317 317 318 319 319 319 319 319 320
311 311 313 316 317 316 312 311 311 311 311 313 316 319 321 321 319 316 315 315 314 314 315 316 318 319 319 319 318 317 318 318 317 317 317 316 316 316 315 315 316 316 315 316 316 315 314 314 314 314 313 312 313 313 312 311 312 312 312 312 311 310 310 310 310 310 310 310 310 311 312 312 311 312 313 313 314 316 317 317 319 319 319 319 320 319 319
311 312 313 316 318 316 313 311 311 311 312 314 317 319 319 319 317 316 315 314 314 315 315 316 319 319 320 320 319 318 317 318 318 318 317 316 317 316 315 316 316 316 315 316 317 316 314 314 315 314 313 312 313 312 311 311 311 312 312 312 311 311 310 310 310 310 310 311 311 311 311 311 311 312 313 313 314 316 316 317 319 319 319 319 319 319 319
311 312 314 317 318 317 314 311 311 312 312 314 316 317 317 316 315 314 314 314 314 315 315 316 319 319 319 320 320 318 316 316 317 317 318 319 318 317 317 317 316 316 317 316 316 315 314 314 314 313 313 314 312 310 310 311 312 312 312 312 311 311 310 310 310 310 310 311 311 311 311 311 311 311 312 312 313 315 316 317 319 319 317 317 318 318 319
312 313 315 316 317 316 314 311 310 311 312 314 317 318 318 316 315 314 314 314 315 315 314 315 318 319 319 319 320 319 317 317 320 320 320 320 318 317 318 318 317 317 317 316 315 315 315 314 313 312 313 313 311 309 310 312 312 311 311 311 312 311 311 310 310 310 310 311 310 311 311 311 311 311 311 311 313 314 316 317 318 318 317 317 317 318 318
312 313 314 315 315 314 312 311 311 312 315 318 319 319 317 316 315 314 314 315 316 317 317 318 318 319 319 318 320 320 318 318 320 319 319 319 319 318 318 317 317 318 317 316 316 316 314 313 313 313 312 311 310 310 310 311 311 310 310 312 312 313 312 312 311 309 310 310 311 311 311 311 311 311 311 311 311 313 314 315 316 317 318 317 318 318 317
313 313 313 313 313 312 312 313 314 316 319 320 319 317 315 314 314 314 314 315 315 316 318 319 319 319 319 317 319 320 319 319 320 319 318 318 319 319 317 317 318 318 316 315 317 316 314 313 313 313 311 311 311 311 311 311 311 311 311 312 313 313 313 313 311 309 309 310 310 310 311 311 311 311 311 311 311 311 312 314 315 317 318 318 317 317 317
312 312 313 313 314 315 318 319 319 319 319 318 317 315 313 314 314 315 315 315 315 315 316 317 319 319 318 317 319 319 319 320 320 319 319 319 320 318 317 318 319 318 316 316 317 316 314 314 313 312 311 312 311 311 311 311 311 311 311 311 311 312 313 313 310 309 309 310 310 310 310 311 311 310 311 311 311 311 312 313 314 316 318 318 317 317 317
312 312 314 316 319 322 323 323 321 319 318 316 315 315 315 315 315 316 315 314 315 315 315 316 317 318 317 318 319 319 319 319 320 319 320 320 319 318 318 319 319 317 316 317 318 315 315 316 314 311 311 312 313 312 312 312 311 310 310 310 311 311 313 312 311 309 310 310 310 310 310 310 310 310 310 310 310 311 312 312 312 314 317 318 318 317 318
313 315 318 321 322 323 324 322 320 317 316 315 316 317 319 317 317 319 319 317 316 317 317 316 317 318 317 318 318 319 318 319 320 320 320 319 317 318 318 319 318 316 315 316 316 315 314 314 312 310 311 314 314 313 311 312 312 311 310 309 310 311 313 312 311 310 310 310 310 310 310 310 310 310 310 310 310 311 311 312 312 313 315 317 319 319 319
316 320 323 323 323 322 321 318 316 316 317 317 317 319 320 320 319 320 321 320 319 320 319 318 317 317 317 318 318 319 319 319 320 321 320 319 317 317 318 319 318 316 314 314 316 315 314 312 310 309 312 315 315 312 311 311 312 312 311 310 310 311 313 314 312 310 310 309 309 310 310 310 310 309 309 309 310 310 310 311 311 312 313 315 317 318 319
322 324 323 321 321 321 319 316 316 317 318 319 320 321 322 322 320 319 320 320 320 319 318 317 317 316 317 318 318 319 320 321 320 319 321 320 318 317 319 319 319 316 314 314 315 314 313 312 309 310 313 315 314 312 312 312 312 311 311 312 312 311 312 314 313 311 309 309 309 309 310 310 309 310 309 310 310 310 311 311 311 311 311 312 313 315 316
319 318 318 319 320 320 319 319 319 319 320 321 322 321 320 319 319 320 320 319 320 319 319 319 318 317 315 315 316 317 320 322 321 320 320 320 318 318 319 319 318 316 315 315 314 314 313 310 309 310 314 315 314 312 312 312 311 310 311 312 313 312 312 313 312 310 309 310 310 309 309 310 309 309 309 309 310 310 310 310 310 310 310 310 311 312 313
315 315 316 319 321 322 321 320 321 322 321 321 319 318 317 317 318 318 318 319 320 320 319 318 316 315 315 316 317 319 321 321 320 319 319 318 318 319 319 318 317 316 315 314 313 313 312 310 310 312 314 314 313 312 312 311 310 309 310 311 312 312 311 311 311 310 309 309 309 309 309 309 309 309 309 309 309 309 309 310 310 309 309 309 309 310 311
318 320 321 322 323 323 322 321 321 323 321 318 316 316 317 318 319 319 320 320 319 318 317 316 315 314 314 316 316 318 320 319 318 318 318 318 318 318 318 317 316 315 314 313 312 312 311 311 312 313 314 314 313 312 312 311 310 309 309 311 312 312 310 310 310 309 309 309 309 309 308 308 308 309 308 309 308 309 309 309 309 309 308 308 308 309 309
322 323 322 321 321 320 318 317 317 319 319 317 316 317 320 321 322 322 322 320 318 317 317 316 315 313 314 315 315 317 319 319 318 318 318 317 317 317 317 316 314 314 313 312 311 310 310 311 312 313 313 313 312 312 312 311 310 310 310 310 311 312 311 310 309 309 309 309 309 309 308 308 308 308 308 308 308 308 308 308 309 308 308 308 308 308 308
324 322 321 321 319 317 315 314 314 315 317 316 317 320 322 321 321 321 320 318 316 316 317 316 314 313 313 314 316 317 318 317 318 317 317 315 316 317 315 314 314 313 312 310 310 309 311 312 312 311 312 312 312 312 312 311 310 310 310 309 310 311 311 310 309 309 309 309 309 309 308 308 308 308 308 307 307 307 308 308 308 308 308 307 307 307 307
323 320 319 319 318 316 315 316 316 317 317 318 319 320 321 320 319 320 320 319 317 317 317 315 314 313 314 314 315 317 317 317 317 316 315 315 315 315 314 313 313 312 310 310 310 311 312 312 312 311 311 311 311 311 311 310 310 310 310 308 308 310 311 310 310 309 309 308 308 308 308 308 307 307 307 307 307 307 307 307 307 308 308 307 307 307 307
322 320 319 319 318 317 317 317 317 319 320 320 319 319 320 320 321 321 320 319 317 317 317 315 314 314 315 316 316 316 316 317 317 316 315 314 314 313 313 312 312 311 310 311 312 312 312 312 312 311 311 310 310 310 310 310 310 309 309 308 308 308 309 310 310 309 309 308 308 308 308 307 307 307 307 307 307 307 306 307 307 307 307 307 307 307 307
322 320 319 319 318 317 318 317 318 321 321 320 320 320 321 321 321 320 319 318 318 317 316 315 314 314 315 315 315 315 315 316 316 315 314 315 315 314 313 311 310 310 311 312 312 312 312 312 312 311 310 310 309 310 310 310 309 309 309 309 308 308 309 309 309 308 308 307 308 308 307 307 307 307 307 307 307 307 306 306 306 306 306 307 307 307 306
322 321 320 319 319 319 319 317 318 321 323 321 320 321 321 320 320 321 319 318 317 317 316 315 314 314 314 314 313 313 314 316 316 314 314 316 316 315 313 312 311 311 312 312 312 312 312 311 311 310 310 310 309 309 310 310 309 309 309 309 309 308 308 308 309 309 308 307 307 307 308 307 307 307 307 307 307 306 306 306 306 306 306 306 306 306 306
320 319 318 318 318 319 319 318 321 323 323 322 321 321 321 320 320 321 320 317 317 318 318 318 317 315 313 312 313 313 314 315 315 315 316 316 315 314 313 313 312 311 311 311 311 311 311 311 310 310 310 310 310 309 310 310 310 310 309 309 309 308 307 307 308 309 309 308 308 307 308 308 307 306 306 306 306 306 306 306 306 306 306 306 306 306 306
316 316 316 318 318 318 320 322 324 323 323 323 321 321 321 320 320 320 318 317 317 319 319 319 317 314 312 312 314 315 316 316 316 316 316 315 314 313 313 313 312 311 312 312 311 311 311 311 310 310 310 310 310 310 310 311 310 310 309 308 308 308 308 307 307 307 308 308 308 308 308 308 307 307 306 306 306 307 307 306 306 306 306 305 305 305 305
Wind_Speed
23 23 22 22 24 24 25 27 25 28 30 26 21 17 8 2 4 7 8 10 11 9 0 3 2 4 4 3 4 2 1 2 1 1 2 2 1 2 4 1 2 4 3 6 8 6 6 7 7 9 8 1 6 8 9 8 8 7 6 5 5 5 6 7 7 9 12 15 15 13 14 16 17 14 13 15 17 16 13 12 12 11 12 12 8 9 6
21 21 20 20 23 24 24 25 24 24 25 22 18 13 4 3 3 4 7 12 10 6 1 3 3 4 3 2 4 2 2 4 4 3 4 4 2 3 5 4 2 4 4 5 8 6 5 5 6 8 8 2 6 7 6 6 8 6 4 5 5 3 6 7 7 8 9 10 12 12 13 11 11 13 15 16 20 22 19 14 11 10 13 14 11 10 8
19 19 18 19 22 22 22 23 22 19 20 20 15 9 4 3 2 3 6 9 7 3 4 4 3 4 3 3 2 2 3 4 4 5 4 3 5 4 2 2 2 5 6 5 7 7 5 5 4 4 6 4 5 6 4 4 8 6 8 9 7 6 6 6 8 9 9 8 7 6 7 7 9 14 20 23 23 23 19 14 12 10 10 13 12 10 9
18 17 17 18 19 20 21 22 20 16 17 20 16 12 8 2 1 2 3 3 4 5 5 6 3 2 2 2 2 2 2 7 3 5 3 1 5 5 1 3 5 3 5 6 7 7 6 5 4 4 5 5 4 3 4 7 9 5 5 7 8 6 7 9 11 12 11 9 8 10 11 9 10 14 19 22 22 23 20 13 12 10 7 12 13 8 9
17 15 15 17 18 19 20 20 19 14 13 18 16 11 6 3 3 4 3 1 3 4 4 5 5 3 2 1 2 3 4 3 4 1 2 2 5 5 2 4 5 3 4 6 6 5 6 6 6 7 7 6 5 5 7 9 7 4 4 8 7 6 8 12 15 16 18 18 18 17 15 14 14 17 17 14 16 21 21 13 12 14 11 11 13 13 13
16 14 15 16 16 18 19 19 19 14 13 17 15 6 3 4 3 3 3 3 4 5 4 5 5 6 6 2 2 3 3 4 2 0 1 2 4 3 1 2 4 3 4 6 5 6 6 6 6 6 6 7 7 8 9 9 8 7 8 9 7 7 9 12 15 17 19 22 22 19 17 16 16 18 18 15 18 20 18 16 17 18 13 10 13 15 14
15 13 13 14 16 17 18 19 18 15 14 16 13 5 5 3 2 3 2 3 4 4 3 4 5 6 5 2 3 5 4 4 2 1 3 3 2 3 4 2 3 4 4 5 5 5 6 6 5 5 6 7 8 7 8 9 8 8 9 7 5 6 9 11 15 16 18 20 21 20 18 18 18 19 19 16 16 18 16 18 21 20 20 17 14 12 11
14 12 12 12 15 16 17 18 18 15 15 15 10 8 7 4 3 4 2 3 4 3 3 3 3 4 3 2 4 4 4 4 3 2 4 5 2 3 6 5 5 6 4 5 7 6 7 8 7 6 8 7 7 7 6 6 5 6 7 6 4 5 7 10 12 12 14 17 19 20 20 20 20 20 19 17 17 16 15 17 19 20 23 23 21 16 10
12 11 11 12 14 16 16 17 16 15 15 13 9 9 8 6 5 6 3 3 3 3 4 2 2 3 4 3 3 3 3 5 5 4 3 5 6 4 6 6 6 6 5 7 8 7 8 10 10 10 10 9 8 7 6 6 7 6 7 6 6 7 7 9 10 10 11 14 17 19 20 21 22 21 20 19 17 15 14 15 17 18 20 23 23 19 10
11 10 11 12 13 15 15 15 14 13 13 11 7 7 7 5 2 6 5 1 1 3 2 2 2 2 4 3 3 3 3 4 5 4 0 2 5 4 5 7 6 6 6 7 7 8 9 11 11 11 11 11 12 10 10 11 10 8 8 7 7 8 7 7 9 10 11 13 16 17 17 18 19 18 19 19 17 17 16 17 18 18 18 18 17 15 12
10 9 9 10 12 14 13 13 13 12 12 10 7 7 7 5 3 4 5 1 2 1 2 3 4 3 3 3 2 3 4 4 4 4 2 3 5 5 6 7 6 5 5 6 7 9 12 13 13 12 13 15 15 13 14 15 13 11 9 8 8 9 10 8 7 8 10 13 14 13 13 14 13 12 16 19 20 21 21 19 19 19 18 17 14 13 12
9 8 8 9 11 12 12 12 12 11 10 7 6 6 7 5 5 4 4 3 3 2 2 4 4 2 2 2 3 4 5 5 4 5 6 6 7 8 7 8 7 5 5 7 9 10 12 13 13 13 15 16 16 17 18 17 16 13 12 11 10 10 10 9 7 7 9 11 11 11 12 12 9 11 16 18 19 21 23 22 23 22 19 17 17 15 12
8 7 7 9 10 10 10 10 11 10 8 5 6 6 6 5 5 2 4 4 2 3 3 3 2 1 2 2 4 4 5 5 5 5 7 8 8 7 6 7 7 7 8 9 11 10 10 10 10 11 11 9 12 15 14 13 14 14 13 13 12 11 10 8 7 8 9 9 10 10 10 10 11 14 17 16 14 15 19 22 23 20 14 11 13 14 13
6 5 6 7 9 9 8 8 9 9 7 5 6 5 4 4 5 3 3 3 3 4 2 1 2 1 3 3 4 4 4 4 5 5 6 6 7 7 5 6 8 8 8 9 9 8 8 6 6 7 7 5 5 6 6 9 12 13 14 12 9 9 10 8 8 9 9 9 10 9 10 11 13 15 14 12 10 10 10 11 13 14 12 7 6 7 7
5 5 5 6 7 7 7 7 7 7 6 4 4 4 3 4 5 5 4 3 2 2 2 2 3 4 3 3 3 4 4 3 4 5 5 5 6 6 5 6 8 10 9 7 6 6 6 6 6 6 5 4 4 3 3 4 6 11 14 11 7 8 11 10 9 8 9 10 9 9 10 10 9 7 6 7 8 6 3 2 6 9 8 4 3 2 3
4 4 5 5 5 6 6 6 6 6 5 3 3 3 2 2 3 4 4 3 3 3 4 5 4 3 3 3 2 3 3 3 4 5 4 3 5 7 6 6 9 11 9 6 5 5 5 5 5 5 5 6 6 5 4 5 5 7 10 10 10 12 11 10 10 9 9 10 9 9 10 7 2 5 10 12 13 11 4 4 5 4 2 2 3 2 3
4 3 4 4 4 5 5 5 6 5 3 2 3 4 2 1 3 4 3 2 3 3 4 4 2 2 2 2 2 2 3 4 4 4 3 4 7 8 7 7 9 10 8 6 5 5 5 5 5 5 5 3 4 4 4 4 4 7 9 10 11 12 8 7 11 12 11 11 9 8 8 3 4 7 9 11 13 12 5 7 4 2 4 4 3 1 2
4 3 3 3 4 5 5 5 5 5 2 0 2 4 3 1 3 5 4 2 3 2 3 3 3 3 3 3 3 3 4 4 4 4 4 6 6 7 8 8 8 6 5 5 6 5 6 5 3 4 4 1 1 3 3 2 3 8 10 9 9 9 6 7 11 13 13 13 11 9 7 1 5 8 8 9 10 7 4 3 2 4 3 2 3 3 3
4 4 3 3 4 4 5 5 4 4 3 1 2 3 3 1 3 4 4 2 2 2 3 2 2 3 3 4 4 4 4 5 4 4 5 5 4 7 11 9 6 4 3 4 4 5 6 3 1 2 4 1 1 2 3 3 3 6 10 10 8 8 6 7 11 12 11 11 10 11 7 1 7 10 6 7 6 4 1 5 8 5 5 4 4 4 4
5 4 3 3 3 3 4 5 5 5 3 2 3 3 3 2 3 4 5 4 4 4 3 1 2 4 4 4 5 5 4 4 4 4 6 5 4 7 8 4 1 4 4 3 2 2 3 3 2 1 2 2 1 1 4 5 4 4 8 9 6 4 4 7 10 11 10 10 11 11 7 2 8 8 4 6 4 2 2 7 8 4 5 5 4 4 4
5 4 3 3 4 3 4 5 5 5 4 3 4 3 4 3 4 4 5 5 5 3 1 3 4 5 4 5 6 6 6 7 6 5 6 4 2 3 5 4 4 4 3 3 4 2 1 3 3 2 2 2 2 2 4 6 4 5 6 8 5 2 3 5 6 6 7 9 7 4 2 4 8 6 3 3 3 2 4 7 7 5 5 5 4 4 5
6 5 3 4 4 4 5 5 4 6 4 4 6 3 3 2 3 4 5 6 8 8 8 10 9 7 7 7 6 6 7 8 7 6 6 4 2 3 5 5 5 2 1 2 3 3 3 3 4 4 3 2 3 4 6 6 4 2 3 5 4 3 4 6 5 4 5 7 5 4 4 4 6 6 4 3 2 2 4 6 6 6 6 6 5 5 6
7 5 4 4 4 4 5 5 4 5 4 6 7 4 4 3 3 4 5 7 9 11 14 14 10 8 10 8 5 4 5 6 6 5 5 5 3 3 4 4 3 0 1 1 2 4 5 4 4 4 3 2 3 5 5 4 3 5 5 4 5 7 8 8 6 5 7 8 7 7 6 6 6 6 4 2 1 3 6 6 5 6 8 8 8 8 8
7 6 4 4 4 4 5 5 4 5 5 7 8 5 6 5 5 5 6 7 6 7 9 9 6 3 2 5 5 3 3 4 5 5 5 6 4 2 1 1 2 1 0 0 1 2 3 3 3 3 2 2 3 4 4 2 2 4 5 5 5 7 7 7 7 6 6 5 5 6 7 9 9 7 3 1 2 4 6 7 6 6 7 9 10 11 10
8 6 5 5 5 5 6 5 5 5 6 7 7 5 5 6 5 6 6 6 5 5 5 3 3 1 0 4 5 2 2 3 5 6 7 8 7 5 1 2 1 1 1 1 1 2 2 2 2 3 2 2 2 3 3 3 2 4 5 5 5 6 7 8 8 7 7 6 6 10 12 11 8 5 2 2 4 7 8 9 9 8 7 9 11 11 11
9 6 5 5 6 6 6 6 6 6 7 8 8 6 7 6 5 6 6 6 6 5 4 4 3 4 3 3 3 2 2 3 5 7 7 8 8 8 6 3 2 3 2 2 2 1 1 1 1 3 2 2 2 3 3 3 4 4 4 4 6 8 8 8 8 8 7 6 6 11 12 8 4 6 7 6 7 9 10 10 11 10 9 9 10 11 11
9 7 6 6 6 7 7 7 6 6 8 9 8 7 8 8 7 7 6 6 5 4 4 4 2 1 1 3 3 3 3 3 4 6 7 7 8 9 8 5 4 4 4 3 2 2 2 1 1 1 1 1 2 2 3 4 4 3 3 4 6 6 5 6 7 6 5 5 8 11 10 7 6 10 12 11 11 12 11 11 11 11 10 9 9 10 11
9 8 6 6 6 7 8 8 7 7 7 8 8 8 10 11 10 9 8 7 6 5 5 6 5 5 5 4 5 4 3 2 4 6 8 8 9 9 9 7 5 4 4 3 2 2 2 1 1 1 1 1 1 1 2 3 3 3 4 6 5 4 4 5 6 5 6 9 11 10 8 8 10 12 12 12 12 12 11 11 11 11 10 9 9 10 10
9 8 6 5 6 8 9 9 8 7 6 6 6 9 11 12 12 11 9 8 7 7 6 7 6 5 4 2 5 6 5 3 4 6 7 9 10 9 8 7 5 5 5 3 2 2 1 1 1 0 1 1 1 1 2 3 3 4 7 9 7 7 7 7 6 7 8 10 10 10 10 10 11 12 13 12 10 10 10 11 11 11 9 8 9 9 10
9 8 7 5 6 8 9 10 10 8 6 6 5 7 8 8 10 11 10 8 7 6 6 6 5 4 2 2 5 8 7 6 6 7 8 9 9 9 8 7 6 5 5 4 2 2 1 1 1 0 2 2 2 2 2 2 2 3 6 8 8 8 8 7 5 6 7 9 10 11 11 9 9 10 11 10 9 9 10 10 11 11 10 9 8 8 8
9 9 7 6 6 7 9 11 11 9 8 7 6 5 4 1 4 8 9 8 6 5 5 5 5 5 2 3 4 6 7 8 9 9 8 8 8 9 9 8 6 5 5 4 2 1 0 1 1 1 2 2 2 2 2 2 3 3 6 8 7 6 7 6 5 6 6 8 11 10 7 6 8 8 8 9 10 11 10 9 11 11 9 8 8 8 8
10 9 7 6 6 8 9 11 12 11 10 10 10 8 5 2 1 5 7 7 6 6 5 5 5 5 2 2 3 5 8 9 9 9 8 6 6 7 8 7 6 4 3 3 3 1 1 1 2 1 1 2 2 2 3 3 4 5 7 7 6 6 7 5 6 7 7 7 8 8 7 8 10 10 10 11 12 11 10 11 12 11 8 7 8 8 9
10 8 7 7 6 7 8 11 12 12 11 12 15 15 15 13 10 7 6 6 6 6 4 4 5 5 2 1 2 5 7 7 7 7 5 3 2 5 5 6 6 3 2 1 2 2 2 1 1 1 1 2 2 2 3 5 6 6 6 6 6 7 8 6 6 7 7 6 7 7 8 10 11 11 11 11 11 11 11 12 12 9 6 6 7 8 9
10 7 5 5 5 6 7 9 11 9 8 11 12 10 11 13 11 7 8 7 5 5 4 4 6 5 2 3 2 5 7 5 4 4 4 4 5 6 5 3 3 2 2 2 3 2 2 2 2 1 1 1 1 3 4 6 7 6 5 6 6 6 7 8 7 7 7 7 7 7 8 10 10 10 11 11 12 13 12 12 13 10 5 5 6 6 6
9 5 4 3 2 4 5 7 8 7 8 11 9 3 3 6 7 7 10 8 5 4 3 4 5 5 4 4 2 3 6 5 2 2 4 5 6 5 3 2 2 3 3 3 3 2 2 2 2 1 1 1 2 3 5 7 8 8 7 7 7 7 7 9 9 9 8 7 7 7 8 10 10 10 11 12 13 14 13 12 13 12 7 4 4 3 4
7 3 1 2 4 6 6 7 8 8 6 4 3 0 0 1 3 6 10 10 8 6 4 4 5 5 6 6 2 2 4 4 3 3 5 5 4 4 4 4 4 2 2 3 4 3 1 1 1 2 3 3 3 3 4 6 8 9 8 8 7 7 7 8 10 11 10 10 10 9 9 11 12 11 11 12 13 14 14 13 13 13 10 4 2 2 2
5 1 3 5 5 5 6 7 8 7 5 1 1 1 1 2 3 5 7 8 9 8 5 5 6 6 6 6 2 2 2 2 1 2 4 3 2 2 3 4 3 0 1 4 4 2 1 1 2 3 3 2 2 2 4 4 6 7 8 7 7 7 7 7 9 11 12 12 12 11 10 11 12 11 12 13 13 14 15 14 13 13 11 7 2 2 3
3 2 3 4 5 5 3 3 6 5 4 2 2 1 2 4 4 4 4 5 6 7 6 6 7 6 7 6 2 3 3 2 0 0 2 3 2 2 3 3 1 0 3 3 1 1 2 3 2 2 1 2 1 2 3 4 5 6 7 7 7 6 6 7 9 11 12 11 12 12 12 12 12 12 12 13 14 14 14 12 12 12 11 9 6 2 3
2 3 5 8 6 2 2 1 4 4 3 2 2 3 4 4 4 4 3 4 4 4 4 5 6 6 6 6 2 3 2 1 1 1 2 3 3 2 2 2 1 1 4 3 1 1 3 2 2 2 1 3 2 3 4 4 4 5 6 8 8 7 5 5 7 10 10 9 10 11 11 11 12 12 12 12 13 13 12 11 12 14 14 12 11 7 3
6 6 6 5 2 2 2 2 3 3 2 3 4 4 3 3 4 3 2 4 5 4 4 4 6 5 5 6 5 1 2 1 2 2 2 3 2 2 2 1 1 2 5 3 2 2 3 3 3 2 1 3 3 4 4 4 4 4 6 7 8 8 7 5 6 9 10 9 10 11 11 11 12 11 11 12 12 12 12 11 12 15 17 16 15 13 10
6 5 4 3 4 2 3 5 4 3 3 3 3 3 3 4 4 3 3 4 4 2 2 3 4 4 3 4 5 3 1 1 2 3 2 1 1 2 3 2 2 3 4 2 1 1 2 4 4 3 3 4 4 4 4 4 4 4 5 6 8 9 8 6 6 8 10 9 8 9 11 13 13 12 12 13 12 11 11 12 13 17 19 19 18 16 14
8 7 7 5 3 0 3 4 5 4 3 3 3 3 4 5 3 2 2 2 3 2 0 1 4 5 6 7 6 3 1 0 1 2 1 1 1 2 2 1 2 3 2 1 1 1 3 4 4 3 4 3 4 4 5 4 4 4 6 7 8 9 8 6 5 7 9 9 9 9 11 13 13 12 12 13 13 12 13 13 14 17 19 18 18 19 18
10 8 8 7 6 5 4 4 4 3 2 3 3 3 4 5 4 3 1 0 2 3 2 1 2 4 5 6 4 1 1 0 1 0 0 1 1 1 1 2 3 3 2 1 1 3 3 3 3 3 3 3 3 4 5 5 4 4 6 6 7 8 8 6 5 7 9 9 9 10 11 12 13 12 12 13 14 14 16 16 16 16 17 17 18 19 20
6 5 4 4 4 4 3 3 3 3 3 3 3 4 6 6 4 4 3 1 1 2 1 2 3 4 4 5 4 1 1 1 1 1 1 2 2 2 3 2 1 1 1 2 3 3 3 1 2 3 3 3 3 4 4 4 5 5 5 6 6 7 7 6 5 6 8 8 9 10 11 11 12 13 14 14 14 14 15 16 16 16 17 17 18 19 19
5 4 3 3 2 1 1 2 2 3 3 4 4 6 7 6 5 5 3 2 3 4 5 4 4 4 4 5 5 2 1 1 1 1 2 3 3 2 2 2 2 1 2 3 3 3 2 2 3 3 3 3 3 4 4 4 4 5 5 5 5 6 6 5 4 4 6 7 8 9 10 11 12 13 14 15 15 15 15 16 16 16 16 16 17 18 19
5 4 3 3 3 2 2 3 3 3 4 5 5 5 5 5 4 4 3 3 4 6 6 4 3 4 5 5 4 3 2 1 0 1 3 4 3 2 2 2 2 3 3 3 4 4 2 3 3 3 3 3 3 3 4 4 4 4 4 5 5 6 6 6 5 4 5 7 8 8 9 10 12 13 14 15 15 15 15 16 16 17 16 15 15 17 18
5 3 3 3 3 3 4 4 5 5 4 4 4 4 3 3 6 7 4 3 4 6 5 3 3 5 5 3 3 3 2 2 1 2 2 3 3 2 2 2 3 3 2 4 4 3 1 3 4 3 3 3 3 3 4 4 4 5 5 5 5 6 6 6 5 4 4 5 7 7 8 9 10 11 12 13 14 15 15 16 16 17 17 16 16 16 17
4 3 3 3 3 4 4 5 5 4 4 6 5 4 2 3 7 7 4 2 3 5 4 3 3 5 4 1 1 2 2 1 1 1 2 3 3 2 1 2 3 3 2 3 3 1 1 3 4 4 4 3 3 3 3 4 5 5 5 5 5 6 7 7 5 3 3 4 6 7 8 8 9 10 11 12 13 14 14 15 15 16 16 16 16 17 17
4 3 3 3 4 5 5 6 6 2 5 5 4 4 3 5 7 6 4 3 3 3 3 3 4 5 3 1 1 4 4 1 1 2 3 3 3 2 2 3 4 3 2 2 1 1 2 4 5 5 4 4 3 3 3 4 4 4 4 5 6 6 6 6 5 4 3 4 5 6 7 7 8 9 10 11 12 12 13 14 14 14 15 16 16 16 17
5 4 4 5 6 6 6 7 7 3 5 4 4 4 4 6 6 4 4 4 3 2 3 4 4 3 2 1 2 4 4 2 2 3 4 3 3 3 3 3 3 2 2 1 1 1 3 5 5 5 5 5 4 3 3 4 3 3 4 5 6 6 6 5 5 4 4 4 4 5 5 6 7 8 9 9 10 11 12 13 14 14 14 15 15 15 17
4 4 5 6 7 7 7 6 6 5 4 3 5 4 4 6 5 4 4 3 4 3 3 2 2 2 1 2 3 4 3 2 3 3 3 2 2 3 4 4 2 2 2 2 1 2 4 5 5 5 5 5 4 3 3 3 2 3 3 4 5 5 5 5 4 3 3 3 3 4 5 5 6 7 8 9 10 10 11 12 13 13 14 14 14 15 15
4 4 5 5 6 7 6 5 5 3 1 4 4 4 4 4 4 4 2 3 4 3 1 1 2 3 2 3 3 3 3 3 4 3 2 2 2 3 5 5 4 3 2 1 1 4 4 5 5 5 5 5 4 4 3 2 2 3 4 5 6 5 5 4 4 4 3 3 3 4 5 6 7 8 9 10 11 10 9 9 11 12 13 13 14 14 14
Wind_Direction
346 349 352 350 347 346 348 350 353 356 358 359 345 324 309 349 32 27 358 326 303 293 186 104 11 56 77 65 70 62 313 3 351 23 346 294 135 281 283 44 12 313 346 325 307 306 300 293 288 283 274 302 32 15 7 350 320 303 281 282 13 1 269 263 265 263 275 277 269 270 274 264 248 241 246 240 228 225 228 230 227 219 216 216 223 243 225
346 351 354 350 348 348 350 353 356 1 4 357 338 323 345 23 13 51 14 340 315 289 32 94 93 77 94 127 94 89 36 20 338 7 17 339 350 307 308 21 34 297 324 310 299 310 307 297 298 293 284 332 18 346 354 355 306 302 355 359 358 323 249 247 255 250 250 253 253 250 246 245 243 237 241 242 232 229 230 232 238 238 231 225 216 221 220
348 352 354 350 349 350 352 354 358 3 2 356 340 312 308 309 265 98 45 2 357 25 16 22 98 109 106 92 90 190 127 77 340 335 13 344 325 316 326 3 285 294 316 300 293 291 273 272 279 275 270 275 309 312 343 338 287 303 13 353 317 284 258 253 249 240 229 223 227 240 244 248 250 243 239 234 228 228 231 230 229 236 252 249 231 212 217
352 354 353 352 351 352 355 356 360 3 359 354 339 301 296 340 2 34 69 52 51 66 33 7 24 108 129 94 38 326 56 96 91 314 331 41 314 303 322 298 279 307 325 295 281 269 255 264 271 261 259 258 272 289 280 274 277 312 356 309 283 271 261 255 249 247 253 269 291 308 314 306 287 271 250 234 231 231 230 231 230 225 238 247 242 242 240
356 357 354 354 354 354 356 359 359 0 356 350 335 299 298 8 32 5 3 59 52 61 57 29 15 25 28 345 357 347 342 60 100 321 331 21 323 308 1 331 313 349 329 292 287 287 283 287 285 279 277 283 286 263 251 257 266 287 271 253 253 263 257 250 249 251 258 272 284 288 292 292 291 289 277 272 276 252 230 229 240 228 224 232 232 243 259
357 358 357 356 356 354 355 0 1 359 356 344 325 299 352 17 51 38 320 309 31 35 23 29 34 32 35 21 302 322 348 4 28 79 255 312 316 315 2 346 318 316 306 299 304 305 294 278 276 282 282 289 289 274 266 261 241 233 245 244 244 257 258 253 254 255 257 265 271 272 276 280 282 284 279 286 301 280 242 230 239 234 233 237 228 229 247
355 357 1 0 358 355 355 0 3 2 4 350 330 339 40 24 65 72 300 316 47 52 351 0 45 43 25 24 3 350 7 18 358 316 289 290 317 317 301 307 299 285 293 301 292 291 291 278 277 290 283 283 283 276 277 267 237 229 245 252 257 263 263 260 260 262 261 265 270 270 272 274 273 275 272 268 283 285 256 230 234 242 244 242 236 233 250
354 357 6 5 358 356 356 1 8 11 13 13 13 25 30 22 29 25 25 56 53 61 38 6 50 62 10 356 33 0 348 11 358 306 297 301 300 289 295 303 298 288 289 283 273 279 290 286 287 287 279 277 276 272 277 272 254 250 254 251 245 248 263 268 267 267 261 262 270 270 266 267 265 264 264 260 262 266 251 231 232 240 239 235 233 231 241
356 358 8 8 358 358 359 1 13 21 16 19 41 43 30 34 12 323 321 55 11 345 43 12 304 43 28 13 34 359 354 13 338 299 302 314 305 300 305 304 298 292 282 272 275 283 284 283 285 281 273 273 275 272 276 278 277 272 265 257 236 230 255 267 261 261 259 255 261 265 262 260 257 254 251 249 247 245 241 239 239 240 238 234 232 231 232
359 3 11 9 359 359 1 3 15 27 24 24 43 45 32 37 7 297 294 45 14 313 24 17 312 44 43 23 19 349 350 1 326 306 341 295 289 296 305 302 299 293 284 286 299 306 301 295 292 286 280 277 274 270 266 264 265 265 267 269 257 245 253 262 259 262 262 256 256 263 262 252 245 243 242 240 240 240 240 243 244 244 242 234 229 232 234
357 4 11 6 359 359 2 9 19 28 34 33 30 38 36 21 350 309 295 335 62 11 1 22 25 52 51 16 3 331 321 327 323 315 303 294 300 308 302 291 287 288 298 314 313 304 298 291 283 278 271 266 262 262 261 259 256 256 259 262 261 256 252 249 253 261 262 263 266 267 259 246 239 240 240 237 235 236 239 245 247 243 239 236 238 241 238
356 2 10 4 359 359 1 12 23 31 39 27 4 29 44 12 339 316 300 328 54 51 36 50 40 33 41 6 324 313 312 315 317 298 294 304 306 304 297 284 279 293 318 317 303 296 292 284 279 273 266 267 268 259 252 250 248 242 242 247 253 259 258 250 246 252 258 265 266 257 247 246 252 258 253 245 239 238 239 242 244 245 241 239 245 250 248
355 2 12 4 358 357 358 9 21 29 38 23 359 22 37 357 340 337 312 323 47 55 37 70 98 34 19 341 307 311 311 309 303 282 282 289 290 294 296 284 286 302 312 307 299 295 288 280 282 278 268 277 282 267 262 272 270 254 240 238 242 248 252 252 247 245 252 257 251 249 258 267 263 259 258 255 249 249 248 241 237 238 236 237 248 252 253
357 6 13 2 356 356 353 3 17 20 26 23 2 11 26 355 344 349 325 329 44 60 37 174 157 24 352 325 318 318 303 298 295 279 274 280 289 302 304 293 300 307 304 302 298 292 288 283 289 284 263 253 267 272 303 322 303 278 259 252 258 262 253 249 247 241 243 250 249 252 268 268 253 246 251 253 250 254 257 250 240 228 215 217 243 253 265
1 6 7 358 355 354 347 354 9 13 19 24 360 353 16 7 345 343 345 334 347 35 32 11 13 2 336 328 331 319 304 304 303 290 281 280 296 312 308 303 312 309 300 298 292 286 291 291 296 300 296 303 311 298 311 307 275 261 257 251 250 253 245 242 246 244 241 247 251 254 256 252 245 260 311 327 312 302 295 267 259 239 214 205 230 249 322
2 358 360 354 344 341 338 340 355 6 9 4 343 335 356 9 344 337 339 320 311 358 35 26 5 335 322 326 323 309 309 317 320 311 293 285 305 314 315 323 323 310 298 291 285 283 285 283 293 306 303 315 328 317 307 313 294 269 269 257 236 235 243 245 244 241 240 241 241 245 249 246 262 342 348 347 338 333 317 222 238 266 316 336 276 255 350
360 349 354 355 337 329 327 325 338 358 6 345 335 340 359 5 314 308 311 308 310 346 30 21 332 307 320 314 295 306 308 307 315 315 306 309 313 313 321 335 327 311 295 283 274 269 272 275 287 297 295 311 326 306 303 318 300 289 292 278 248 237 238 239 237 235 236 238 237 241 246 252 29 6 338 328 333 336 297 221 202 55 27 358 336 341 5
354 343 335 336 326 322 317 312 322 340 349 289 306 325 337 324 287 292 301 309 303 338 41 19 321 314 334 327 314 314 314 313 313 306 304 310 316 321 322 318 311 304 289 283 284 276 271 269 274 289 298 319 262 293 318 336 289 289 296 291 265 247 231 223 232 234 231 231 237 244 235 203 14 350 338 332 325 316 263 237 346 36 48 35 25 17 1
352 344 317 290 297 307 307 303 306 322 331 191 212 285 301 266 259 278 286 291 291 317 1 359 297 291 303 300 292 289 291 295 297 303 306 306 324 327 313 293 285 301 287 274 293 291 277 268 207 263 282 279 213 284 300 284 270 291 297 292 274 255 242 225 224 230 232 229 235 244 230 103 2 332 347 10 325 265 231 329 328 352 35 36 28 22 3
343 342 325 289 282 287 293 295 292 301 309 202 205 280 295 243 236 264 279 295 293 290 314 359 305 290 274 264 279 290 289 280 279 293 297 301 338 333 313 288 315 328 299 270 286 314 301 311 338 268 270 302 321 271 278 269 238 249 284 289 282 265 258 234 218 219 228 228 231 240 233 49 8 339 359 32 0 310 358 330 316 355 35 15 11 24 8
336 330 320 300 289 278 279 281 279 292 292 189 188 278 296 238 229 248 263 283 283 274 356 17 331 298 278 273 282 283 282 287 294 299 298 306 350 330 307 320 334 322 323 325 317 323 325 313 313 300 289 305 280 272 305 304 263 217 243 269 281 283 272 254 231 218 226 226 228 250 274 25 19 6 15 28 12 3 347 331 330 1 14 355 355 8 0
332 323 307 291 284 274 273 266 256 277 275 181 177 241 276 236 243 250 249 260 264 271 293 307 304 281 264 273 282 271 273 287 292 292 293 295 282 256 277 306 316 308 358 346 312 302 303 303 307 306 303 302 294 299 308 307 306 315 285 277 295 319 307 291 281 285 279 263 265 308 327 346 5 9 9 10 359 327 322 328 335 338 339 340 336 336 344
329 319 304 287 277 268 266 257 245 261 251 178 176 234 287 289 256 249 256 261 264 271 275 273 271 260 246 243 252 261 266 279 281 270 259 257 264 268 272 293 313 301 207 266 280 298 303 304 310 308 308 320 314 305 297 280 302 341 332 308 313 319 310 299 292 300 304 293 285 291 301 317 334 343 358 25 358 316 315 319 324 322 321 322 318 319 324
327 312 296 285 277 264 258 246 234 247 235 188 182 229 287 287 257 247 258 258 261 277 267 243 240 285 246 202 212 245 253 256 261 247 222 227 246 261 246 299 304 295 281 263 268 289 298 301 302 303 321 342 326 316 314 306 332 345 331 318 325 333 331 316 297 292 299 304 322 335 322 313 316 317 319 9 344 322 314 311 308 306 306 308 308 308 307
327 311 288 281 273 261 257 247 229 231 227 202 194 223 268 273 257 249 261 271 277 298 300 254 229 313 52 180 199 229 265 246 228 206 198 210 230 249 299 14 341 318 6 52 214 267 301 318 315 313 329 353 341 328 322 318 339 345 333 327 331 335 336 324 303 291 284 283 322 342 321 299 298 312 331 351 335 322 314 310 305 296 287 289 297 302 303
327 311 285 276 267 252 249 245 235 232 222 203 199 223 253 271 265 241 253 285 283 268 289 295 232 204 211 220 206 202 260 245 199 185 195 207 220 241 266 281 235 232 236 203 195 264 293 261 300 315 334 12 359 331 315 307 309 307 301 313 314 304 307 319 317 304 285 275 320 342 325 296 311 359 350 334 325 318 312 308 303 295 285 282 291 300 302
324 313 288 270 259 248 243 241 236 235 227 212 208 228 249 260 258 238 246 283 290 264 277 293 262 162 277 272 227 192 228 232 173 168 184 199 212 226 235 234 229 234 231 213 192 215 244 242 279 288 308 348 319 289 272 276 288 286 279 311 320 305 301 324 323 307 298 315 339 341 324 296 314 334 328 322 321 315 306 301 297 291 285 284 291 297 298
322 314 293 267 254 245 240 235 233 236 232 217 218 244 256 253 248 242 243 262 280 292 296 292 302 322 312 263 215 201 212 217 190 177 174 182 201 217 220 219 224 237 238 232 219 217 231 263 323 260 249 276 281 298 292 283 301 342 337 338 348 338 318 324 320 304 304 315 321 322 312 296 300 309 310 311 311 306 301 298 294 290 288 285 284 288 293
320 312 299 273 251 243 236 229 228 231 224 209 227 261 266 251 239 236 236 242 258 279 293 288 283 290 294 232 202 206 206 204 209 196 180 181 194 207 215 217 223 239 246 250 266 267 236 205 256 289 125 187 255 344 350 325 347 2 343 340 352 351 338 335 331 314 305 306 312 313 304 296 299 304 303 301 300 301 302 298 292 291 290 279 271 277 288
316 308 300 283 258 244 233 227 224 216 197 193 227 262 266 241 220 217 222 231 245 267 290 296 287 279 281 246 221 212 203 203 216 214 204 200 203 208 216 220 225 239 249 245 234 248 265 198 242 197 127 164 267 320 20 357 349 354 344 344 349 347 344 347 342 326 317 317 318 309 293 293 307 308 301 298 301 302 298 291 290 294 291 278 270 270 276
315 306 299 288 268 246 229 224 221 205 185 194 226 261 293 285 175 198 217 226 234 251 274 284 289 294 281 221 216 219 217 218 224 228 224 222 224 223 221 225 227 228 245 266 265 196 80 114 203 227 153 168 242 315 17 8 342 343 349 350 348 345 346 348 344 338 330 325 325 317 298 307 326 320 309 314 315 309 303 300 298 297 293 286 279 270 267
315 305 296 288 272 251 232 222 214 199 192 211 236 253 275 302 218 212 222 220 222 246 273 281 278 284 277 179 196 224 230 230 235 240 233 224 231 232 222 227 238 227 232 297 303 274 234 169 169 202 205 177 212 298 358 13 359 344 340 341 343 347 349 352 352 350 345 339 342 342 333 333 337 332 324 323 320 316 318 316 307 297 288 284 277 265 262
318 304 294 290 275 247 227 216 211 204 205 228 246 251 251 255 262 249 217 205 223 248 269 281 277 279 287 268 226 202 205 220 238 243 227 174 206 255 243 233 243 239 103 39 285 277 300 305 182 168 175 203 259 321 8 19 6 348 331 330 341 348 349 356 5 1 356 356 359 356 342 336 336 332 327 326 326 327 330 328 319 304 279 266 266 259 254
316 302 294 296 274 238 216 206 202 199 212 240 257 258 240 239 249 237 200 197 235 256 241 247 276 285 274 260 236 175 183 209 244 254 241 193 198 240 265 256 244 236 185 212 249 258 275 290 286 211 179 196 334 2 11 3 358 354 342 340 348 348 349 359 11 11 5 2 3 358 345 340 342 341 340 343 345 344 345 343 336 326 299 256 257 259 256
316 304 301 305 247 189 176 175 184 200 231 246 253 248 195 222 239 221 200 203 236 264 236 231 266 289 289 280 274 166 195 224 235 241 254 236 212 224 258 278 256 233 208 222 254 265 259 281 301 306 326 17 25 16 0 349 351 357 356 354 355 352 351 357 2 7 11 10 4 357 349 349 355 354 351 355 356 352 351 351 345 338 325 274 244 247 255
316 303 319 57 115 138 150 171 193 214 238 244 237 203 37 273 239 207 206 220 243 263 276 270 265 275 287 296 324 132 198 235 219 199 231 243 223 208 220 236 250 251 206 231 248 250 247 305 292 300 338 10 20 10 0 354 354 356 358 359 357 353 356 359 354 358 10 15 9 2 357 357 0 359 357 1 2 356 355 356 350 343 336 311 235 211 231
305 255 107 106 128 171 198 194 192 206 220 224 23 8 94 140 178 198 211 229 237 237 253 281 275 266 281 301 320 146 201 258 250 221 246 257 242 227 238 247 260 297 221 240 259 276 241 225 263 297 344 24 17 4 11 8 0 359 1 4 360 352 354 359 354 355 7 14 10 7 5 2 3 4 1 2 3 2 2 360 350 343 342 338 311 208 177
272 181 167 194 215 236 239 176 162 186 219 253 318 293 182 173 201 219 211 215 223 216 222 255 264 258 271 288 263 185 205 283 356 176 284 292 273 242 241 243 242 257 238 231 266 341 262 220 238 297 2 99 71 359 11 15 8 3 1 6 7 356 353 3 2 0 8 13 10 8 9 7 6 7 3 1 3 5 4 2 356 352 351 350 348 348 164
224 205 233 238 243 300 12 106 157 172 194 220 238 234 212 199 222 230 194 187 211 214 213 238 254 258 276 292 275 159 158 290 282 175 228 259 257 251 249 230 174 261 267 250 160 234 263 248 251 287 88 112 79 3 2 7 8 6 1 3 6 0 358 11 11 7 13 19 13 11 13 12 10 9 5 2 3 6 7 7 3 0 0 1 4 12 37
219 231 249 258 281 34 69 139 157 166 197 223 229 235 230 217 226 236 222 220 228 214 201 236 258 261 273 290 293 235 156 216 269 265 243 239 251 292 288 260 175 245 274 276 157 195 264 290 294 300 49 76 46 14 9 4 2 3 360 3 5 1 360 11 14 12 18 23 18 17 20 20 17 14 9 7 8 8 10 11 9 6 7 6 8 15 26
238 254 282 331 7 50 123 148 176 214 235 236 232 236 237 230 226 233 259 269 270 237 196 265 300 312 308 298 296 285 191 181 265 282 273 256 277 277 265 252 228 247 269 306 72 144 274 290 299 332 42 50 30 21 21 14 9 1 356 2 7 2 2 12 18 18 22 25 20 19 21 23 24 20 14 12 12 9 7 9 12 14 14 10 6 10 20
279 286 286 288 295 184 161 187 213 225 237 245 245 248 256 258 255 247 248 282 330 5 71 331 337 333 317 305 301 299 311 14 319 301 289 281 284 286 286 277 248 251 272 341 20 253 262 281 305 2 50 50 28 21 19 16 14 2 355 2 7 5 8 20 29 26 29 30 24 22 24 27 31 30 21 16 16 14 14 17 18 17 17 13 9 10 14
280 279 270 260 241 220 225 235 220 204 227 246 236 251 274 273 268 264 248 41 14 359 359 355 329 308 294 291 290 267 153 232 299 330 263 247 239 241 250 239 233 247 295 331 262 261 280 300 329 23 52 45 27 22 14 7 6 0 1 8 12 10 14 25 33 31 33 34 30 27 27 30 35 38 35 30 24 19 19 25 28 25 20 16 16 18 17
268 256 250 254 239 221 238 253 219 213 251 251 231 259 283 290 304 323 338 29 11 321 288 268 285 291 289 289 290 276 182 210 215 163 209 227 219 222 240 246 222 224 265 263 261 278 299 343 60 63 53 38 31 26 15 4 0 0 6 15 21 18 17 21 26 30 33 38 38 35 30 30 33 36 37 37 35 28 22 23 28 31 27 22 23 24 22
252 243 237 262 263 205 213 248 223 219 249 263 270 293 311 331 348 340 316 229 231 251 243 235 244 259 271 283 288 279 231 217 182 192 251 262 262 262 284 323 352 298 273 282 294 300 316 73 87 73 53 45 37 29 23 15 7 3 9 19 25 22 18 18 25 30 32 37 42 42 35 31 33 34 33 33 34 34 29 25 26 31 32 30 27 27 27
261 258 248 267 268 230 225 247 245 242 264 291 319 346 1 3 343 315 280 247 263 274 270 259 252 258 272 286 287 276 279 294 280 279 294 295 291 297 325 325 295 278 289 307 302 301 339 63 86 91 83 71 51 34 32 29 14 8 13 22 25 24 21 21 26 33 32 35 44 48 41 34 34 36 36 33 31 31 30 29 28 32 36 36 32 30 30
262 258 258 275 270 245 233 239 251 267 299 339 9 36 45 341 306 298 281 267 285 289 282 269 253 256 271 298 308 297 314 1 9 319 307 298 291 297 309 288 278 287 304 296 284 290 25 80 101 110 106 97 76 51 41 37 25 15 13 15 20 27 27 23 22 29 31 32 41 47 44 38 37 38 39 38 35 32 30 29 30 33 36 38 37 35 34
268 260 258 260 251 247 252 268 281 307 10 23 16 23 26 314 306 311 314 300 293 289 279 268 266 269 271 282 284 275 275 100 106 259 254 257 276 291 283 278 291 304 289 268 271 294 71 105 117 123 124 114 91 67 50 42 32 20 12 10 18 30 35 34 37 53 56 44 40 39 37 36 37 37 38 41 42 38 34 32 33 34 35 36 37 37 38
268 270 262 252 259 269 283 290 292 328 58 44 354 342 337 307 305 322 340 326 300 287 274 267 277 289 300 343 300 283 281 274 246 252 240 238 251 251 236 265 294 299 278 262 285 28 95 115 125 136 140 126 102 81 67 55 39 23 15 14 17 26 39 48 56 67 64 47 39 35 31 28 29 32 37 42 45 44 40 37 36 36 36 37 37 37 37
253 263 251 250 266 281 287 288 294 343 49 25 338 329 320 304 306 339 0 333 304 279 259 251 251 264 308 345 303 287 281 263 257 265 265 265 270 269 262 265 274 280 287 328 53 113 129 133 141 150 147 133 119 95 73 61 41 23 20 20 17 18 27 43 59 65 50 32 26 27 24 20 20 25 33 38 42 46 48 45 41 39 40 40 40 39 38
240 249 249 255 270 280 287 306 342 24 33 328 309 309 300 300 317 4 13 324 287 266 259 261 255 253 259 267 273 286 297 281 266 268 274 281 289 289 287 292 314 349 352 1 89 130 137 140 148 155 152 145 139 115 86 68 42 22 19 19 19 17 13 18 38 53 50 36 24 10 4 8 13 16 24 35 40 43 47 48 45 44 45 44 43 44 43
240 256 268 272 274 282 302 343 28 61 238 283 310 318 297 301 335 8 355 294 281 285 305 291 266 264 266 265 275 296 310 289 275 279 299 315 305 287 289 304 335 355 333 294 158 144 146 148 151 155 156 154 147 130 110 81 35 22 15 14 18 16 3 360 12 18 20 34 30 1 355 10 17 9 10 27 37 37 40 48 49 48 47 47 47 46 46